When you browse on this site, cookies collect data to enhance your experience and personalize the content and advertising you see.
Visit our Privacy Policy to learn more. By continuing to use the site, you agree to this use of cookies and data.

Stündliche Wetter Can Tho

Heute, 10 Juli, Freitag

Zeit Temperatur Niederschläge Wind Luftdruck Luftfeuchtigkeit
00:00 +27°C° 0 mm 2 m/S 755 mmHg 90%
01:00 +27°C° 0 mm 1 m/S 755 mmHg 91%
02:00 +27°C° 0 mm 1 m/S 755 mmHg 92%
03:00 +27°C° 0 mm 1 m/S 754 mmHg 92%
04:00 +27°C° 0 mm 1 m/S 754 mmHg 92%
05:00 +27°C° 0 mm 1 m/S 754 mmHg 91%
06:00 +28°C° 0 mm 1 m/S 755 mmHg 90%
07:00 +28°C° 0 mm 2 m/S 755 mmHg 88%
08:00 +30°C° 0.4 mm 2 m/S 755 mmHg 82%
09:00 +31°C° 0.4 mm 2 m/S 756 mmHg 76%
10:00 +32°C° 0.4 mm 2 m/S 756 mmHg 69%
11:00 +34°C° 0.6 mm 3 m/S 756 mmHg 68%
12:00 +34°C° 0.6 mm 3 m/S 755 mmHg 66%
13:00 +34°C° 0.6 mm 3 m/S 755 mmHg 64%
14:00 +34°C° 1.2 mm 3 m/S 755 mmHg 68%
15:00 +33°C° 1.2 mm 3 m/S 754 mmHg 71%
16:00 +31°C° 1.2 mm 3 m/S 754 mmHg 75%
17:00 +30°C° 0.5 mm 3 m/S 754 mmHg 80%
18:00 +29°C° 0.5 mm 3 m/S 755 mmHg 85%
19:00 +28°C° 0.5 mm 2 m/S 755 mmHg 89%
20:00 +28°C° 0 mm 2 m/S 755 mmHg 91%
21:00 +28°C° 0 mm 2 m/S 756 mmHg 92%
22:00 +27°C° 0 mm 2 m/S 756 mmHg 93%
23:00 +27°C° 0.2 mm 2 m/S 756 mmHg 93%

Morgen, 11 Juli, Samstag

Zeit Temperatur Niederschläge Wind Luftdruck Luftfeuchtigkeit
00:00 +27°C° 0.2 mm 2 m/S 756 mmHg 94%
01:00 +27°C° 0.2 mm 2 m/S 755 mmHg 94%
02:00 +27°C° 0.4 mm 2 m/S 755 mmHg 94%
03:00 +27°C° 0.4 mm 2 m/S 755 mmHg 93%
04:00 +27°C° 0.4 mm 3 m/S 754 mmHg 92%
05:00 +27°C° 0 mm 2 m/S 754 mmHg 92%
06:00 +27°C° 0 mm 2 m/S 754 mmHg 91%
07:00 +27°C° 0 mm 2 m/S 755 mmHg 90%
08:00 +29°C° 0 mm 2 m/S 755 mmHg 83%
09:00 +31°C° 0 mm 2 m/S 755 mmHg 76%
10:00 +32°C° 0 mm 2 m/S 755 mmHg 68%
11:00 +34°C° 0.2 mm 3 m/S 755 mmHg 67%
12:00 +34°C° 0.2 mm 3 m/S 755 mmHg 66%
13:00 +35°C° 0.2 mm 3 m/S 755 mmHg 64%
14:00 +34°C° 3.2 mm 3 m/S 754 mmHg 70%
15:00 +31°C° 3.2 mm 3 m/S 753 mmHg 77%
16:00 +30°C° 3.2 mm 3 m/S 753 mmHg 83%
17:00 +29°C° 1.2 mm 3 m/S 753 mmHg 85%
18:00 +29°C° 1.2 mm 3 m/S 754 mmHg 87%
19:00 +28°C° 1.2 mm 3 m/S 755 mmHg 89%
20:00 +28°C° 0 mm 2 m/S 755 mmHg 90%
21:00 +28°C° 0 mm 2 m/S 756 mmHg 91%
22:00 +27°C° 0 mm 2 m/S 756 mmHg 92%
23:00 +27°C° 0 mm 2 m/S 756 mmHg 92%

übermorgen, 12 Juli, Sonntag

Zeit Temperatur Niederschläge Wind Luftdruck Luftfeuchtigkeit
00:00 +27°C° 0 mm 2 m/S 756 mmHg 92%
01:00 +27°C° 0 mm 1 m/S 756 mmHg 93%
02:00 +27°C° 0 mm 1 m/S 755 mmHg 93%
03:00 +27°C° 0 mm 1 m/S 755 mmHg 93%
04:00 +27°C° 0 mm 1 m/S 754 mmHg 93%
05:00 +27°C° 0 mm 2 m/S 754 mmHg 92%
06:00 +28°C° 0 mm 2 m/S 755 mmHg 91%
07:00 +28°C° 0 mm 2 m/S 755 mmHg 90%
08:00 +29°C° 0 mm 2 m/S 755 mmHg 83%
09:00 +31°C° 0 mm 3 m/S 755 mmHg 76%
10:00 +33°C° 0 mm 3 m/S 755 mmHg 69%
11:00 +34°C° 1.1 mm 3 m/S 755 mmHg 69%
12:00 +34°C° 1.1 mm 2 m/S 755 mmHg 69%
13:00 +34°C° 1.1 mm 2 m/S 754 mmHg 69%
14:00 +31°C° 4.3 mm 2 m/S 754 mmHg 75%
15:00 +30°C° 4.3 mm 2 m/S 754 mmHg 82%
16:00 +29°C° 4.3 mm 2 m/S 753 mmHg 89%
17:00 +28°C° 3.1 mm 2 m/S 754 mmHg 91%
18:00 +27°C° 3.1 mm 1 m/S 754 mmHg 93%
19:00 +26°C° 3.1 mm 1 m/S 755 mmHg 95%
20:00 +26°C° 1.3 mm 1 m/S 755 mmHg 95%
21:00 +26°C° 1.3 mm 2 m/S 756 mmHg 96%
22:00 +26°C° 1.3 mm 2 m/S 756 mmHg 96%
23:00 +26°C° 0.7 mm 2 m/S 756 mmHg 96%

13 Juli, Montag

Zeit Temperatur Niederschläge Wind Luftdruck Luftfeuchtigkeit
00:00 +26°C° 0.7 mm 2 m/S 756 mmHg 96%
01:00 +26°C° 0.7 mm 2 m/S 756 mmHg 96%
02:00 +26°C° 1.1 mm 2 m/S 755 mmHg 96%
03:00 +26°C° 1.1 mm 1 m/S 755 mmHg 96%
04:00 +25°C° 1.1 mm 1 m/S 755 mmHg 97%
05:00 +25°C° 0.6 mm 1 m/S 755 mmHg 97%
06:00 +25°C° 0.6 mm 1 m/S 756 mmHg 96%
07:00 +25°C° 0.6 mm 2 m/S 756 mmHg 96%
08:00 +26°C° 0.3 mm 2 m/S 756 mmHg 94%
09:00 +27°C° 0.3 mm 1 m/S 756 mmHg 92%
10:00 +27°C° 0.3 mm 1 m/S 757 mmHg 89%
11:00 +28°C° 0.4 mm 2 m/S 756 mmHg 86%
12:00 +29°C° 0.4 mm 2 m/S 756 mmHg 83%
13:00 +30°C° 0.4 mm 2 m/S 755 mmHg 79%
14:00 +29°C° 1.9 mm 2 m/S 755 mmHg 82%
15:00 +29°C° 1.9 mm 3 m/S 755 mmHg 84%
16:00 +29°C° 1.9 mm 3 m/S 754 mmHg 86%
17:00 +28°C° 2.9 mm 3 m/S 755 mmHg 89%
18:00 +27°C° 2.9 mm 2 m/S 755 mmHg 93%
19:00 +26°C° 2.9 mm 2 m/S 756 mmHg 96%
20:00 +26°C° 0.6 mm 2 m/S 756 mmHg 96%
21:00 +26°C° 0.6 mm 1 m/S 756 mmHg 95%
22:00 +26°C° 0.6 mm 1 m/S 757 mmHg 95%
23:00 +26°C° 0 mm 1 m/S 756 mmHg 95%

14 Juli, Dienstag

Zeit Temperatur Niederschläge Wind Luftdruck Luftfeuchtigkeit
00:00 +26°C° 0 mm 1 m/S 756 mmHg 95%
01:00 +26°C° 0 mm 1 m/S 756 mmHg 95%
02:00 +26°C° 0 mm 1 m/S 756 mmHg 94%
03:00 +25°C° 0 mm 1 m/S 756 mmHg 94%
04:00 +25°C° 0 mm 1 m/S 755 mmHg 94%
05:00 +26°C° 0 mm 1 m/S 756 mmHg 93%
06:00 +26°C° 0 mm 1 m/S 756 mmHg 93%
07:00 +26°C° 0 mm 1 m/S 756 mmHg 92%
08:00 +27°C° 0 mm 1 m/S 757 mmHg 87%
09:00 +29°C° 0 mm 1 m/S 757 mmHg 82%
10:00 +30°C° 0 mm 1 m/S 757 mmHg 77%
11:00 +31°C° 0.3 mm 1 m/S 756 mmHg 75%
12:00 +31°C° 0.3 mm 2 m/S 756 mmHg 72%
13:00 +32°C° 0.3 mm 2 m/S 755 mmHg 69%
14:00 +33°C° 1.9 mm 3 m/S 755 mmHg 72%
15:00 +32°C° 1.9 mm 4 m/S 754 mmHg 75%
16:00 +30°C° 1.9 mm 4 m/S 754 mmHg 78%
17:00 +30°C° 0.4 mm 3 m/S 755 mmHg 82%
18:00 +29°C° 0.4 mm 2 m/S 755 mmHg 85%
19:00 +28°C° 0.4 mm 1 m/S 755 mmHg 89%
20:00 +27°C° 0 mm 2 m/S 756 mmHg 89%
21:00 +27°C° 0 mm 2 m/S 756 mmHg 90%
22:00 +27°C° 0 mm 2 m/S 757 mmHg 91%
23:00 +26°C° 0 mm 2 m/S 756 mmHg 91%

15 Juli, Mittwoch

Zeit Temperatur Niederschläge Wind Luftdruck Luftfeuchtigkeit
00:00 +26°C° 0 mm 2 m/S 756 mmHg 92%
01:00 +26°C° 0 mm 2 m/S 755 mmHg 92%
02:00 +26°C° 0 mm 1 m/S 755 mmHg 93%
03:00 +26°C° 0 mm 1 m/S 755 mmHg 94%
04:00 +26°C° 0 mm 1 m/S 755 mmHg 94%
05:00 +26°C° 0 mm 1 m/S 755 mmHg 93%
06:00 +27°C° 0 mm 1 m/S 756 mmHg 91%
07:00 +27°C° 0 mm 1 m/S 756 mmHg 90%
08:00 +29°C° 0 mm 1 m/S 756 mmHg 82%
09:00 +31°C° 0 mm 2 m/S 756 mmHg 75%
10:00 +32°C° 0 mm 2 m/S 756 mmHg 68%
11:00 +34°C° 0 mm 2 m/S 756 mmHg 66%
12:00 +34°C° 0 mm 2 m/S 755 mmHg 65%
13:00 +34°C° 0 mm 2 m/S 754 mmHg 63%
14:00 +34°C° 0.1 mm 2 m/S 754 mmHg 65%
15:00 +34°C° 0.1 mm 2 m/S 753 mmHg 66%
16:00 +34°C° 0.1 mm 2 m/S 753 mmHg 67%
17:00 +32°C° 0.4 mm 2 m/S 753 mmHg 73%
18:00 +30°C° 0.4 mm 2 m/S 754 mmHg 79%
19:00 +29°C° 0.4 mm 2 m/S 754 mmHg 85%
20:00 +29°C° 0 mm 2 m/S 754 mmHg 86%
21:00 +28°C° 0 mm 2 m/S 755 mmHg 87%
22:00 +28°C° 0 mm 2 m/S 755 mmHg 88%
23:00 +27°C° 0 mm 2 m/S 755 mmHg 89%
Mehr zeigen